Tracking 19908 objects as of 19-Oct-2019
HD Live streaming from Space Station
objects crossing your sky now

CZ-3B R/B


CZ-3B R/B is no longer on orbit


NORAD ID: 43583
Int'l Code: 2018-062C
Perigee: N/A
Apogee: N/A
Inclination: N/A
Period: N/A
Semi major axis: N/A
RCS: N/A
Launch date: July 29, 2018
Source: People's Republic of China (PRC)
Launch site: Xichang Space Center, China (XSC)
Decay date: 2019-07-20

Note: This is a ROCKET BODY
aabbcc
Your satellite tracking list
Your tracking list is empty




NASA's NSSDC Master Catalog

Two Line Element Set (TLE):
1 43583U 18062C   19200.95215933  .99999999  14934-4  12466-2 0  9997
2 43583  54.6377 353.2752 0257690 335.1061 157.7761 16.05994770 19509
Source of the keplerian elements: AFSPC